This demonstration page uses our WeatherBlox Daily Observations layout. Learn more.

Left ArrowRight Arrow

39.92423, -83.80882

Hourly Observations for September 18, 2021

Temp ( °F °C ) Dew Point ( °F °C ) Humidity (%) Winds ( mph kmh ) Pressure ( in mb ) Visibility ( mi km ) Precip ( " mm )
12:56 am 00:56 Clear 64 18 N/A N/A N N/A 30.13 1020 10 16 N/A
1:45 am 01:45 Clear with Mist and Fog 64 18 N/A N/A N N/A 30.13 1020 2 2 N/A
1:53 am 01:53 Clear with Mist and Fog 64 18 N/A N/A N N/A 30.13 1020 1 2 N/A
1:56 am 01:56 Clear with Mist and Fog 64 18 N/A N/A N N/A 30.13 1020 2 3 N/A
2:00 am 02:00 Clear with Mist and Fog 64 18 N/A N/A N N/A 30.12 1020 1 1 N/A
2:08 am 02:08 Clear with Mist and Fog 64 18 N/A N/A N N/A 30.12 1020 2 2 N/A
2:11 am 02:11 Clear with Mist and Fog 63 17 N/A N/A N N/A 30.13 1020 3 5 N/A
2:56 am 02:56 Clear 63 17 N/A N/A N N/A 30.13 1020 10 16 N/A
3:56 am 03:56 Hazy 63 17 N/A N/A N N/A 30.13 1020 6 10 N/A
4:25 am 04:25 Clear with Mist and Fog 63 17 N/A N/A N N/A 30.13 1020 2 3 N/A
4:31 am 04:31 Mostly Clear with Mist and Fog 63 17 N/A N/A N N/A 30.13 1020 3 4 N/A
4:38 am 04:38 Clear 63 17 N/A N/A N N/A 30.12 1020 8 13 N/A
4:56 am 04:56 Hazy 63 17 N/A N/A ESE 3 6 30.13 1020 5 8 N/A
5:18 am 05:18 Partly Cloudy with Mist and Fog 63 17 N/A N/A N N/A 30.12 1020 3 4 N/A
5:23 am 05:23 Mostly Cloudy with Mist and Fog 63 17 N/A N/A N N/A 30.12 1020 1 2 N/A
5:31 am 05:31 Partly Cloudy with Mist and Fog 63 17 N/A N/A N N/A 30.13 1020 2 3 N/A
5:38 am 05:38 Hazy 63 17 N/A N/A N N/A 30.13 1020 6 10 N/A
5:56 am 05:56 Clear 63 17 N/A N/A N N/A 30.14 1021 8 13 N/A
6:12 am 06:12 Mostly Clear 63 17 N/A N/A N N/A 30.14 1021 N/A N/A
6:19 am 06:19 Mostly Clear with Mist and Fog 61 16 N/A N/A N N/A 30.15 1021 2 2 N/A
6:24 am 06:24 Mostly Cloudy with Mist and Fog 61 16 N/A N/A N N/A 30.15 1021 1 1 N/A
6:33 am 06:33 Mostly Cloudy with Fog 63 17 N/A N/A N N/A 30.14 1021 1 1 N/A
6:47 am 06:47 Clear with Fog 63 17 N/A N/A N N/A 30.14 1021 1 1 N/A
6:52 am 06:52 Mostly Cloudy with Fog 61 16 N/A N/A N N/A 30.15 1021 0 0 N/A
6:56 am 06:56 Mostly Cloudy with Fog 63 17 N/A N/A N N/A 30.14 1021 0 0 N/A
7:28 am 07:28 Cloudy with Mist and Fog 61 16 N/A N/A N N/A 30.15 1021 1 1 N/A
7:31 am 07:31 Cloudy with Mist and Fog 61 16 N/A N/A E 3 6 30.15 1021 1 2 N/A
7:33 am 07:33 Cloudy with Fog 61 16 N/A N/A E 3 6 30.15 1021 1 1 N/A
7:40 am 07:40 Cloudy with Fog 59 15 N/A N/A N N/A 30.15 1021 0 0 N/A
7:56 am 07:56 Cloudy with Fog 61 16 N/A N/A N N/A 30.16 1021 0 0 N/A
8:00 am 08:00 Cloudy with Mist and Fog 63 17 N/A N/A N N/A 30.15 1021 1 1 N/A
8:03 am 08:03 Cloudy with Mist and Fog 63 17 N/A N/A N N/A 30.15 1021 2 2 N/A
8:09 am 08:09 Cloudy with Mist and Fog 63 17 N/A N/A N N/A 30.15 1021 3 5 N/A
8:31 am 08:31 Partly Cloudy 66 19 N/A N/A undefined N/A 30.15 1021 7 11 N/A
8:56 am 08:56 Hazy 68 20 N/A N/A N N/A 30.16 1021 5 8 N/A
9:56 am 09:56 Sunny 76 24.4 70 21.1 82 82 N N/A 30.17 1022 7 11 N/A
10:56 am 10:56 Sunny 80 26.7 71 21.7 74 74 N N/A 30.17 1022 10 16 N/A
11:56 am 11:56 Sunny 81 27.2 68 20 65 65 N N/A 30.16 1022 10 16 N/A
12:56 pm 12:56 Sunny 84 28.9 64 17.8 51 51 N N/A 30.15 1021 10 16 N/A
1:56 pm 13:56 Sunny 86 30 63 17.2 46 46 ENE 5 7 30.14 1021 10 16 N/A
2:56 pm 14:56 Sunny 85 29.4 63 17.2 48 48 E 3 6 30.12 1020 10 16 N/A
3:56 pm 15:56 Sunny 87 30.6 62 16.7 43 43 N N/A 30.11 1020 10 16 N/A
4:56 pm 16:56 Partly Cloudy 87 30.6 62 16.7 43 43 N 3 6 30.09 1019 10 16 N/A
5:56 pm 17:56 Sunny 86 30 60 15.6 42 42 N N/A 30.09 1019 10 16 N/A
6:56 pm 18:56 Sunny 81 27.2 66 18.9 61 61 N 5 7 30.09 1019 10 16 N/A
7:56 pm 19:56 Clear 76 24.4 67 19.4 74 74 NNW 3 6 30.10 1019 10 16 N/A
8:56 pm 20:56 Clear 70 21.1 70 21.1 100 100 E 3 6 30.12 1020 10 16 N/A
9:56 pm 21:56 Partly Cloudy 72 22.2 69 20.6 91 91 NE 10 17 30.13 1020 10 16 N/A
10:56 pm 22:56 Clear 68 20 68 20 100 100 ENE 7 11 30.14 1021 10 16 N/A
11:56 pm 23:56 Clear 66 19 N/A N/A NE 6 9 30.14 1021 10 16 N/A

Powered by AerisWeather